This demonstration page uses our WeatherBlox Daily Observations layout. Learn more.

Left ArrowRight Arrow

Hourly Observations for September 7, 2020

Temp ( °F °C ) Dew Point ( °F °C ) Humidity (%) Winds ( mph kmh ) Pressure ( in mb ) Visibility ( mi km ) Precip ( " mm )
12:15 am 00:15 Clear 63 17.3 52 10.9 66 66 Calm 29.91 1013 10 16 0.00 0.00
12:35 am 00:35 Clear 60 15.4 52 11 75 75 Calm 29.93 1014 10 16 0.00 0.00
12:55 am 00:55 Clear 58 14.5 52 11.2 81 81 NW 5 7 29.95 1014 10 16 0.00 0.00
1:15 am 01:15 Clear 59 14.9 53 11.6 81 81 N 6 9 29.95 1014 10 16 0.00 0.00
1:35 am 01:35 Clear 59 14.8 52 11.1 79 79 NW 5 7 29.95 1014 10 16 0.00 0.00
1:55 am 01:55 Clear 57 13.7 51 10.6 82 82 NW 6 9 29.96 1014 10 16 0.00 0.00
2:15 am 02:15 Clear 60 15.3 52 11.1 76 76 NNE 6 9 29.94 1014 10 16 0.00 0.00
2:35 am 02:35 Clear 61 16.2 52 11.2 72 72 NE 6 9 29.94 1014 10 16 0.00 0.00
2:55 am 02:55 Clear 62 16.5 53 11.5 72 72 NE 9 15 29.92 1013 10 16 0.00 0.00
3:15 am 03:15 Clear 63 17.1 52 11.1 68 68 ENE 13 20 29.92 1013 10 16 0.00 0.00
3:35 am 03:35 Clear 61 16.2 52 11.1 72 72 ENE 8 13 29.93 1013 10 16 0.00 0.00
3:55 am 03:55 Clear 60 15.6 52 11.1 75 75 ENE 6 9 29.93 1014 10 16 0.00 0.00
4:15 am 04:15 Clear 59 15 52 11 77 77 ENE 7 11 29.94 1014 10 16 0.00 0.00
4:35 am 04:35 Clear 59 15 51 10.7 76 76 ENE 8 13 29.93 1013 10 16 0.00 0.00
4:55 am 04:55 Clear 58 14.6 51 10.5 77 77 ENE 8 13 29.93 1014 10 16 0.00 0.00
5:15 am 05:15 Clear 58 14.2 50 10.2 77 77 ENE 13 20 29.90 1013 10 16 0.00 0.00
5:35 am 05:35 Clear 57 14.1 50 10 77 77 Calm 29.93 1014 10 16 0.00 0.00
5:55 am 05:55 Clear 56 13.3 50 9.8 80 80 ENE 5 7 29.93 1014 10 16 0.00 0.00
6:15 am 06:15 Clear 56 13.1 49 9.5 79 79 ENE 6 9 29.92 1013 10 16 0.00 0.00
6:35 am 06:35 Clear 55 12.8 49 9.5 81 81 Calm 29.94 1014 10 16 0.00 0.00
6:55 am 06:55 Clear 53 11.7 49 9.2 85 85 Calm 29.95 1014 10 16 0.00 0.00
7:15 am 07:15 Sunny 52 10.9 49 9.5 91 91 N 5 7 29.95 1014 10 16 0.00 0.00
7:35 am 07:35 Sunny 53 11.6 48 9.1 85 85 NE 7 11 29.94 1014 10 16 0.00 0.00
7:55 am 07:55 Sunny 54 12.2 49 9.2 82 82 ENE 6 9 29.93 1014 10 16 0.00 0.00
8:15 am 08:15 Sunny 55 13 49 9.5 79 79 ENE 7 11 29.91 1013 10 16 0.00 0.00
8:35 am 08:35 Sunny 56 13.5 49 9.5 77 77 ENE 9 15 29.90 1013 10 16 0.00 0.00
8:55 am 08:55 Sunny 58 14.6 49 9.5 72 72 ENE 10 17 29.88 1012 10 16 0.00 0.00
9:15 am 09:15 Sunny 60 15.5 49 9.5 68 68 ENE 14 22 29.87 1012 10 16 0.00 0.00
9:35 am 09:35 Sunny 61 16.2 48 9.1 63 63 E 16 26 29.86 1011 10 16 0.00 0.00
9:55 am 09:55 Sunny 62 16.7 47 8.4 58 58 E 20 31 29.83 1010 10 16 0.00 0.00
10:15 am 10:15 Sunny 63 17.1 47 8.2 56 56 E 18 30 29.84 1010 10 16 0.00 0.00
10:35 am 10:35 Sunny 65 18.1 46 8 52 52 E 17 28 29.82 1010 10 16 0.00 0.00
10:55 am 10:55 Sunny 65 18.4 47 8.6 53 53 E 13 20 29.83 1010 10 16 0.00 0.00
11:15 am 11:15 Sunny 66 18.7 48 8.7 52 52 E 14 22 29.82 1010 10 16 0.00 0.00
11:35 am 11:35 Sunny 66 19.1 47 8.6 51 51 ENE 10 17 29.83 1010 10 16 0.00 0.00
11:55 am 11:55 Sunny 68 20 46 7.9 46 46 ENE 13 20 29.81 1010 10 16 0.00 0.00
12:15 pm 12:15 Sunny 68 20.1 46 7.9 45 45 ENE 13 20 29.80 1009 10 16 0.00 0.00
12:35 pm 12:35 Sunny 70 20.9 46 7.6 42 42 ENE 13 20 29.78 1009 10 16 0.00 0.00
12:55 pm 12:55 Sunny 71 21.7 45 7.3 40 40 ENE 15 24 29.76 1008 10 16 0.00 0.00
1:15 pm 13:15 Sunny 72 22 45 7.3 39 39 E 12 19 29.75 1007 10 16 0.00 0.00
1:35 pm 13:35 Sunny 72 22.2 46 7.5 39 39 E 14 22 29.73 1007 10 16 0.00 0.00
1:55 pm 13:55 Sunny 73 22.9 46 7.6 38 38 E 13 20 29.72 1006 10 16 0.00 0.00
2:15 pm 14:15 Sunny 75 23.7 46 7.7 36 36 E 16 26 29.70 1006 10 16 0.00 0.00
2:35 pm 14:35 Sunny 74 23.3 45 7.2 36 36 ENE 20 31 29.69 1006 10 16 0.00 0.00
2:55 pm 14:55 Sunny 75 23.7 46 7.5 35 35 E 17 28 29.68 1005 10 16 0.00 0.00
3:15 pm 15:15 Sunny 74 23.1 47 8.1 38 38 ENE 15 24 29.69 1005 10 16 0.00 0.00
3:35 pm 15:35 Sunny 74 23.3 47 8.3 38 38 ENE 16 26 29.68 1005 10 16 0.00 0.00
3:55 pm 15:55 Sunny 74 23.1 47 8.3 39 39 ENE 17 28 29.69 1005 10 16 0.00 0.00
4:15 pm 16:15 Partly Cloudy 73 23 47 8.1 39 39 ENE 18 30 29.70 1006 10 16 0.00 0.00
4:35 pm 16:35 Mostly Cloudy 74 23.1 47 8.2 39 39 E 20 31 29.70 1006 10 16 0.00 0.00
4:55 pm 16:55 Cloudy 73 23 46 8 38 38 ENE 20 31 29.71 1006 10 16 0.00 0.00
5:15 pm 17:15 Cloudy 72 22.2 46 7.7 39 39 ENE 18 30 29.72 1007 10 16 0.00 0.00
5:35 pm 17:35 Cloudy 71 21.5 46 7.7 41 41 ENE 17 28 29.74 1007 10 16 0.00 0.00
5:55 pm 17:55 Cloudy 70 20.9 46 7.7 43 43 ENE 18 30 29.76 1008 10 16 0.00 0.00
6:15 pm 18:15 Cloudy 69 20.4 45 7.3 43 43 ENE 18 30 29.78 1008 10 16 0.00 0.00
6:35 pm 18:35 Cloudy 67 19.7 43 6.1 41 41 ENE 18 30 29.80 1009 10 16 0.00 0.00
6:55 pm 18:55 Cloudy 67 19.4 43 6 42 42 ENE 18 30 29.81 1009 10 16 0.00 0.00
7:15 pm 19:15 Cloudy 66 19 42 5.8 42 42 ENE 17 28 29.81 1010 10 16 0.00 0.00
7:35 pm 19:35 Cloudy 65 18.6 43 6 44 44 ENE 17 28 29.82 1010 10 16 0.00 0.00
7:55 pm 19:55 Cloudy 64 18 43 5.9 45 45 NE 20 31 29.83 1010 10 16 0.00 0.00
8:15 pm 20:15 Cloudy 63 17.2 42 5.7 47 47 NE 18 30 29.86 1011 10 16 0.00 0.00
8:35 pm 20:35 Cloudy 62 16.9 41 5.2 46 46 NE 22 35 29.87 1011 10 16 0.00 0.00
8:55 pm 20:55 Cloudy 57 13.8 43 6.3 61 61 NNE 25 41 29.93 1013 7 11 0.00 0.00
9:15 pm 21:15 Cloudy 56 13.1 43 6 62 62 NE 24 39 29.95 1014 10 16 0.00 0.00
9:35 pm 21:35 Cloudy 55 12.7 43 6 64 64 NE 22 35 29.97 1015 10 16 0.00 0.00
9:55 pm 21:55 Cloudy 54 12.4 42 5.7 64 64 NE 21 33 29.97 1015 10 16 0.00 0.00
10:15 pm 22:15 Cloudy 54 12.1 42 5.7 65 65 NE 23 37 29.98 1015 10 16 0.00 0.00
10:35 pm 22:35 Cloudy 54 12.2 42 5.6 64 64 NE 23 37 29.99 1016 10 16 0.00 0.00
10:55 pm 22:55 Cloudy 54 12.1 42 5.5 64 64 NNE 22 35 29.98 1015 10 16 0.00 0.00
11:15 pm 23:15 Cloudy 53 11.5 41 5.2 66 66 NE 16 26 29.98 1015 10 16 0.00 0.00
11:35 pm 23:35 Cloudy 52 11 41 5.1 67 67 NE 24 39 29.99 1016 10 16 0.00 0.00
11:55 pm 23:55 Cloudy 51 10.5 41 4.9 69 69 NE 20 31 30.01 1016 10 16 0.00 0.00

Powered by AerisWeather